Погода в Бовешене

Бельгия     50°46′49″N   4°46′26″E
темп.,
°C
ветер,
м/с
пор.,
м/с
влажн.,
%
обл.,
%
осадки,
мм/ч
давл.,
гПа
погр.,
м
19 сентября, вс
вс1923:00+15в3683100 0.0 1015106
02:00+14в3486100 0.0 101468
05:00+13вюв2285100 0.0 101430
08:00+13вюв3483100 0.0 101380
11:00+18вюв3366100 0.0 1014357
14:00+21в2255100 0.0 10141008
17:00+21св125379 0.0 10141353
20:00+17всв2270100 0.0 101419
20 сентября, пн
пн2023:00+15вюв2276100 0.0 101531
02:00+15вюв2371100 0.0 101663
05:00+15в2371100 0.0 101684
08:00+15св2471100 0.0 101799
11:00+18ссв3462100 0.0 1019457
14:00+20ссв4454100 0.0 10201293
17:00+20ссв445290 0.0 10201590
20:00+14ссв487210 0.0 1022146
21 сентября, вт
вт2123:00+11св38802 0.0 1025156
02:00+9св35820 0.0 102683
05:00+8ссв358473 0.0 102773
08:00+8св368220 0.0 1028160
11:00+13св46645 0.0 1030574
14:00+17св455225 0.0 10291226
17:00+17св455199 0.0 10281245
20:00+13св366915 0.0 103094
22 сентября, ср
ср2223:00+10всв377833 0.0 1030116
02:00+9всв338189 0.0 103037
05:00+8всв2282100 0.0 102817
08:00+8в228385 0.0 102821
11:00+14всв226223 0.0 1028343
14:00+18вюв11505 0.0 1026820
17:00+19ююз01485 0.0 1023961
20:00+14св01665 0.0 102311
23 сентября, чт
чт2323:00+12ю33735 0.0 102220
02:00+11юз33803 0.0 102235
05:00+10зюз3484100 0.0 102144
08:00+9зюз358286 0.0 102079
11:00+15з466621 0.0 1019444
14:00+18сз466083 0.0 10191383
17:00+17сз467299 0.0 1018790
20:00+14сз367388 0.0 1018309